Theta_e
314 314 315 316 315 315 315 316 316 315 315 313 314 315 316 315 312 312 311 312 312 313 313 313 312 313 314 312 311 308 314 314 313 311 313 307 310 304 301 304 303 303 302 301 302
311 311 312 312 314 314 314 315 315 315 314 315 313 314 315 314 315 311 312 312 312 313 313 312 311 312 311 312 310 309 311 314 310 308 312 309 309 307 306 304 304 301 298 298 299
309 310 310 311 311 312 313 313 314 314 314 314 313 314 313 315 314 311 312 311 312 313 313 312 311 310 312 311 311 309 310 312 312 310 310 310 308 303 306 307 306 306 300 297 297
309 309 309 309 310 311 311 312 312 313 313 313 314 314 313 315 315 313 312 311 312 312 312 310 309 311 311 313 310 313 311 311 312 312 310 311 305 306 304 309 303 302 299 297 297
309 309 309 309 309 309 310 311 311 312 312 313 314 314 315 314 312 313 313 312 311 312 310 309 310 310 314 310 311 312 311 312 310 309 309 306 308 308 304 303 300 298 297 297 297
310 310 309 309 309 309 309 309 310 310 311 313 314 313 314 314 313 313 311 311 310 310 309 308 309 308 310 313 312 310 311 310 308 309 309 310 308 308 306 297 298 296 297 296 296
310 310 310 310 309 309 308 308 309 309 310 313 313 314 313 311 313 311 310 310 310 309 308 308 309 309 308 309 308 309 311 309 308 309 309 307 309 307 305 297 298 296 295 295 295
310 310 310 310 310 309 308 308 308 308 310 314 313 314 311 314 314 311 310 309 309 309 309 308 308 307 308 307 307 310 308 312 310 309 309 309 313 309 300 298 300 296 294 294 294
309 309 309 310 310 309 308 308 308 310 314 312 314 313 311 313 312 312 309 308 308 308 308 308 307 306 307 310 311 309 314 311 310 307 309 308 311 308 300 297 300 296 295 294 294
309 309 307 308 309 309 308 307 309 313 314 314 313 312 309 312 312 312 310 308 307 308 309 307 305 308 306 311 312 311 313 310 310 309 307 308 308 309 305 299 302 299 296 294 293
310 309 308 306 309 309 308 308 308 305 310 311 310 309 310 312 312 310 308 308 307 308 309 308 311 311 309 309 311 311 311 311 308 305 307 307 308 308 308 301 302 299 296 295 294
310 309 309 308 311 309 309 308 310 307 308 308 305 305 307 311 311 309 307 308 308 309 308 309 311 309 309 307 309 308 309 308 306 305 304 305 307 307 307 307 307 303 298 296 295
310 310 309 309 312 309 308 308 309 309 309 307 306 308 309 309 308 308 305 305 307 306 307 309 310 307 309 308 308 307 308 308 309 304 302 301 305 303 303 303 302 301 300 297 296
311 311 309 310 310 311 308 307 309 307 302 304 306 309 310 308 308 303 304 305 306 307 306 309 307 309 308 309 307 310 305 307 306 306 309 303 311 305 305 305 303 302 299 299 295
312 311 310 311 311 309 308 308 308 302 302 305 306 306 306 309 306 306 303 305 306 306 308 310 306 307 309 309 305 309 303 304 304 304 302 303 304 307 300 304 306 305 300 299 296
313 312 311 310 311 310 307 307 306 304 307 305 310 309 310 308 306 305 305 303 304 308 307 308 304 305 308 303 304 302 303 301 297 300 306 307 307 306 303 304 305 303 301 299 295
314 313 311 310 310 311 307 305 307 303 304 304 309 309 310 309 309 306 306 305 307 310 310 309 306 304 304 307 305 304 307 311 309 306 311 299 302 308 304 302 304 305 302 297 295
315 314 312 310 310 312 305 308 308 304 303 308 309 309 310 307 308 307 306 307 304 308 308 311 312 304 303 308 309 304 307 312 310 308 308 297 306 308 302 303 299 297 295 292 292
316 313 312 311 310 310 304 310 304 306 305 306 309 311 309 309 308 307 306 306 307 307 312 310 311 303 303 302 305 304 306 306 305 289 304 308 306 304 303 301 298 295 292 293 292
314 312 312 312 310 307 304 307 305 306 304 307 306 307 306 308 306 307 306 305 308 306 309 311 313 304 300 300 298 302 301 307 306 310 306 308 308 309 306 306 303 300 297 296 293
315 315 313 312 310 309 307 305 305 307 305 307 305 304 305 306 307 306 307 306 306 307 307 309 313 307 302 303 303 301 303 302 304 306 308 306 309 304 306 305 304 303 298 296 295
314 316 307 310 313 313 312 307 307 307 305 307 306 304 303 306 307 306 307 308 305 305 308 307 310 314 305 300 298 301 304 305 308 308 303 305 310 305 306 304 303 303 299 296 293
316 313 306 310 314 314 309 309 309 309 307 309 309 308 305 305 308 307 306 305 304 307 308 307 310 313 313 304 300 301 300 302 302 302 309 308 310 305 303 302 300 300 296 295 293
313 312 308 307 311 313 313 312 312 308 309 307 308 307 309 309 307 309 307 306 304 307 310 309 310 314 311 308 304 303 300 302 304 309 309 308 309 308 308 306 304 300 294 295 292
315 312 307 309 310 313 312 311 313 312 308 307 309 309 309 310 309 310 308 307 304 304 306 308 313 312 312 310 305 304 305 304 304 306 308 309 308 308 308 308 307 307 306 301 292
318 309 309 309 310 311 313 313 312 312 309 311 310 310 309 310 310 309 309 309 312 304 305 304 312 310 313 310 306 308 307 309 306 306 304 305 306 307 307 307 306 306 306 305 302
315 311 309 309 310 311 311 311 313 312 311 309 311 311 310 309 310 310 309 309 310 310 309 305 308 311 314 311 306 309 310 310 309 308 308 309 307 306 306 306 305 305 305 305 303
Wind_Speed
14 15 17 18 19 20 20 20 20 21 21 12 4 4 2 6 3 2 1 2 2 4 3 3 2 6 4 3 3 3 4 1 3 5 3 3 3 1 1 4 3 5 3 2 21
14 15 16 17 18 19 20 20 19 20 20 16 11 5 5 5 3 2 2 1 2 3 2 3 2 3 4 2 3 4 3 5 4 4 2 4 4 6 3 2 5 4 4 6 31
13 14 15 16 17 18 19 20 20 19 19 18 12 7 5 5 2 4 3 1 3 3 3 3 4 2 4 2 3 2 4 3 3 4 3 3 3 6 5 6 10 10 8 14 20
12 13 15 16 16 17 18 19 20 20 19 18 11 7 2 1 4 5 3 0 2 3 4 4 4 3 3 2 1 1 1 2 3 2 2 3 6 4 8 7 1 7 14 17 16
14 14 15 15 17 18 18 19 20 21 20 17 8 4 2 2 6 5 4 3 0 0 6 3 4 3 2 3 1 2 2 2 4 5 4 3 7 6 9 9 1 6 13 16 16
15 16 16 18 18 19 19 19 21 22 21 17 7 2 2 4 3 5 4 4 1 2 4 4 4 3 4 2 2 2 3 5 3 4 3 4 3 1 2 4 5 9 13 14 16
16 17 18 19 19 20 20 20 22 23 22 14 5 4 3 10 5 5 5 4 2 3 4 3 6 1 5 3 0 1 4 5 3 1 3 5 8 10 4 3 6 9 10 12 16
18 18 18 19 20 22 23 22 22 24 20 8 2 4 6 3 6 5 6 5 5 6 8 6 5 6 2 3 4 1 3 3 2 3 2 4 11 6 5 6 10 10 10 13 16
18 18 18 20 22 23 24 24 24 21 9 1 3 3 7 2 4 7 6 5 6 7 7 7 4 3 3 4 4 5 3 4 7 6 1 6 10 6 5 7 11 11 13 14 12
17 18 18 19 19 21 24 24 16 6 1 2 1 2 1 3 4 5 6 8 3 5 3 5 5 3 3 3 5 6 4 5 6 4 4 5 17 20 8 9 18 13 13 13 16
15 17 19 18 14 16 22 8 6 4 2 6 3 3 2 1 3 2 5 8 4 3 5 1 2 9 12 8 3 3 4 7 5 4 4 10 15 20 20 9 15 14 12 16 20
15 17 18 18 12 11 7 3 3 3 7 5 5 6 7 3 3 4 8 6 5 7 6 3 11 9 5 4 5 4 4 7 7 2 6 9 17 18 20 19 19 16 12 16 13
14 15 17 16 13 5 3 2 3 2 2 8 5 4 3 7 6 5 11 4 5 7 8 8 3 6 7 4 6 5 6 5 8 5 3 7 10 8 6 6 8 9 12 12 17
15 15 15 16 7 5 1 2 4 2 3 7 5 3 3 3 4 1 5 4 2 10 10 7 2 7 4 6 8 4 6 2 3 3 4 4 13 3 6 11 8 8 10 14 15
15 14 13 7 11 2 2 3 4 2 5 5 3 2 3 5 2 1 1 1 6 6 7 8 8 5 5 8 9 6 4 4 1 3 3 4 5 4 3 8 16 9 10 11 12
13 12 11 6 7 6 2 7 3 4 8 4 4 3 3 2 2 1 1 2 1 4 2 6 1 6 7 3 2 6 4 4 3 2 2 8 10 5 6 9 8 6 6 7 8
15 13 10 8 3 3 6 2 2 6 3 5 5 4 2 6 4 6 6 5 7 4 6 0 5 3 3 5 3 3 5 4 5 2 8 5 3 15 7 10 12 11 7 6 7
20 16 13 12 11 7 7 4 9 8 9 2 4 2 7 8 6 7 5 5 8 1 3 6 11 9 6 8 8 7 9 6 9 4 16 2 8 9 16 13 6 7 7 6 7
22 21 13 17 15 9 2 5 12 10 10 10 3 4 5 5 6 6 9 7 10 17 10 8 9 2 3 3 4 5 6 2 4 2 3 6 13 7 8 10 6 10 7 11 9
26 15 15 21 20 11 1 19 9 9 8 5 16 13 12 9 9 10 10 6 7 16 5 6 5 3 3 3 1 5 5 4 2 3 6 12 22 18 10 15 11 11 14 12 7
20 4 11 32 27 3 8 11 6 8 7 9 14 8 10 10 10 8 9 5 8 6 9 6 6 3 4 10 13 4 4 3 2 4 6 7 17 5 7 10 11 14 10 10 9
6 5 17 42 9 6 12 8 4 4 3 9 5 10 12 10 9 8 11 10 10 9 11 8 5 9 13 1 0 3 12 13 6 8 5 2 25 1 2 9 9 8 8 7 7
4 4 15 22 8 10 3 4 3 3 6 8 10 7 5 9 6 9 9 4 10 11 11 9 4 2 8 2 3 7 7 8 2 1 23 7 23 5 10 9 9 8 8 9 10
4 5 3 5 7 16 16 10 8 6 10 5 4 7 4 5 7 10 7 7 7 7 7 13 7 11 21 17 6 6 8 18 21 17 16 26 35 37 34 20 12 8 9 13 12
4 2 7 8 16 16 17 9 20 11 6 9 7 21 14 14 16 22 10 1 4 7 3 8 13 16 23 26 6 5 7 21 23 30 19 30 20 38 34 20 24 19 21 11 10
5 4 4 4 14 22 20 17 24 20 11 12 21 20 20 24 25 24 19 4 6 3 5 1 13 10 27 26 9 12 18 29 24 33 15 20 32 45 27 20 22 27 23 23 17
13 5 4 7 12 15 21 29 26 25 13 23 22 17 18 28 28 30 20 9 11 10 12 8 7 9 24 22 4 2 36 30 33 34 21 27 39 31 28 26 28 27 24 24 20
Wind_Direction
12 13 14 13 12 11 13 15 15 12 9 4 332 254 342 10 356 229 223 111 73 5 11 160 67 126 102 74 74 135 71 217 236 166 246 161 160 23 358 129 231 206 186 267 173
359 1 2 4 4 3 3 6 10 9 7 359 349 287 271 324 319 290 176 58 27 21 67 105 77 118 61 65 19 85 112 216 193 201 259 193 187 176 169 193 245 260 221 163 162
349 351 350 351 354 354 354 355 359 4 2 356 346 331 275 298 354 221 183 24 1 16 58 82 97 89 84 89 359 178 172 214 232 223 197 184 224 160 163 235 221 211 166 161 168
338 341 342 340 341 344 344 346 349 354 356 355 343 329 301 221 219 177 181 209 14 23 50 53 40 66 90 105 299 145 216 205 280 230 169 218 130 220 197 229 52 223 169 168 180
328 330 331 330 332 334 335 336 339 344 347 348 339 316 290 350 257 188 200 218 108 224 60 85 57 124 114 144 146 164 232 243 288 284 257 142 238 238 245 237 224 143 163 180 184
318 322 322 324 325 327 327 329 331 335 338 338 326 266 156 242 196 191 219 207 149 118 84 55 145 170 105 104 141 170 278 273 309 269 254 235 286 341 234 139 166 170 187 188 186
312 312 316 320 320 320 320 322 324 325 330 328 301 203 135 236 201 199 195 180 116 129 115 110 129 115 137 136 220 127 318 315 238 224 249 177 280 232 229 179 200 203 193 192 197
309 310 313 314 317 320 319 319 319 317 320 316 234 188 239 221 205 200 163 125 105 94 107 116 108 105 74 126 31 85 63 25 231 173 248 156 272 266 178 180 226 214 203 200 206
315 311 309 311 314 318 319 320 315 311 312 242 194 170 266 200 199 198 191 165 126 91 84 99 65 87 49 89 8 359 254 241 301 206 228 177 273 230 172 214 241 219 213 209 208
318 320 314 310 318 317 321 323 310 305 113 145 71 32 232 223 162 170 168 153 112 110 70 50 53 78 44 100 239 229 240 247 241 218 211 227 258 277 247 224 249 228 213 209 213
315 320 320 320 327 326 332 337 8 345 41 197 207 248 262 227 188 175 162 133 110 85 177 10 117 214 211 201 174 169 199 234 250 239 226 248 254 262 275 245 257 241 209 212 220
313 318 321 328 332 329 334 84 158 155 309 268 241 278 236 180 278 208 168 157 156 195 127 59 229 204 134 152 154 167 207 259 283 238 194 271 263 265 259 261 260 251 225 223 215
302 313 320 326 328 328 334 152 153 148 196 293 221 217 209 166 221 232 159 150 160 176 189 171 232 110 133 147 164 204 193 228 238 335 253 302 267 236 284 254 266 224 225 214 210
294 306 321 327 302 332 254 184 163 158 44 265 240 261 95 136 269 32 193 147 199 209 160 228 222 152 162 209 151 226 209 209 285 13 259 20 294 235 243 280 258 235 208 223 208
282 296 316 321 306 244 173 159 154 138 294 275 209 133 131 166 108 310 217 76 195 186 138 238 164 165 187 216 162 223 125 143 135 216 7 237 264 217 7 273 266 258 219 220 208
272 274 293 287 274 264 252 153 126 51 246 284 161 185 139 171 179 126 136 55 117 141 252 255 353 170 199 79 147 135 96 69 64 103 263 225 201 169 184 212 257 258 229 223 203
266 256 234 230 227 334 217 143 62 196 298 233 215 173 178 191 208 180 172 187 179 135 226 243 212 174 165 101 28 103 71 325 315 343 247 136 229 258 234 229 220 227 220 217 221
242 228 222 223 238 256 165 58 224 182 192 112 137 122 194 161 222 184 171 225 236 126 123 184 266 179 186 197 179 173 168 170 241 238 288 72 244 273 220 238 216 255 258 246 223
223 209 199 209 213 214 163 204 218 176 186 167 106 172 233 235 195 156 209 207 207 177 195 182 267 117 203 150 148 182 191 172 96 138 313 242 263 283 227 250 237 238 234 250 223
194 196 198 205 195 162 160 238 214 186 141 143 200 183 204 194 174 185 180 195 217 194 184 221 274 188 137 129 63 174 161 85 3 248 251 268 273 271 219 233 228 241 223 241 235
196 201 189 189 163 175 215 229 245 205 157 169 216 226 220 187 197 204 219 225 199 186 188 158 180 217 130 205 174 143 199 199 170 164 198 268 269 205 207 201 208 231 213 213 219
158 248 172 159 171 200 226 197 220 242 177 235 190 219 207 186 206 225 218 223 162 152 164 210 171 225 220 314 123 198 197 180 201 227 242 203 268 52 314 190 204 222 212 215 220
189 172 181 182 202 207 248 281 251 187 196 203 228 199 177 196 226 192 221 184 154 163 167 175 221 264 261 343 356 215 196 214 247 231 233 193 257 174 236 227 205 223 231 236 229
165 157 191 218 242 211 209 227 235 206 233 231 243 172 164 229 245 253 221 200 198 201 354 168 170 209 237 248 131 193 200 214 216 235 234 231 255 274 260 267 257 248 232 230 221
205 203 175 183 228 227 212 201 227 222 208 196 245 232 215 234 240 242 257 269 78 12 339 166 242 240 251 259 221 205 230 226 222 229 223 252 246 257 269 268 270 269 268 258 220
250 169 176 243 213 225 218 217 231 233 183 218 219 237 232 240 241 263 240 199 217 237 199 191 248 267 253 258 249 244 254 256 253 252 238 256 262 256 279 286 286 276 275 276 257
236 197 182 201 204 203 219 229 231 237 241 237 230 223 232 233 229 241 258 194 207 216 236 200 233 242 254 259 221 259 244 260 263 268 263 256 253 272 265 266 260 266 270 268 265